Regional Weather Roundup
Issued by NWS Upton, NY

Current Version | Previous Version | Graphics & Text | Print | Product List | Glossary Off
Versions: 1 2 3 4 5 6 7 8 9 10 11 12 13 14 15 16 17 18 19 20 21 22 23 24 25 26 27 28 29 30 31 32 33 34 35 36 37 38 39 40 41 42 43 44 45 46 47 48 49 50

000
ASUS41 KOKX 272004
RWROKX

REGIONAL WEATHER ROUNDUP
NATIONAL WEATHER SERVICE NEW YORK NY
400 PM EDT THU AUG 27 2015

NOTE: "FAIR" INDICATES FEW OR NO CLOUDS BELOW 12,000 FEET WITH NO
SIGNIFICANT WEATHER AND/OR OBSTRUCTIONS TO VISIBILITY.

NYZ071-072-176-178-NJZ106-104-272100-
NEW YORK CITY METRO AREA


CITY           SKY/WX    TMP DP  RH WIND       PRES   REMARKS
CENTRAL PARK   PTSUNNY   79  51  37 MISG      30.06F
LAGUARDIA APRT PTSUNNY   79  51  37 W8G20     30.02F
KENNEDY INTL   PTSUNNY   83  52  34 W12       30.03F
NEWARK/LIBERTY PTSUNNY   81  52  36 NW12G18   30.04F
BRNX BOT. GARD   N/A     77  54  44 SW5       30.06R
TETERBORO      PTSUNNY   79  52  38 NW13      30.02F
$$

NYZ177-179-078>081-272100-
LONG ISLAND NEW YORK

CITY           SKY/WX    TMP DP  RH WIND       PRES   REMARKS
FARMINGDALE    MOSUNNY   81  53  37 NW10G17   30.03F
ISLIP          PTSUNNY   80  52  37 NW13G20   30.01F
SHIRLEY        PTSUNNY   77  59  53 S7        30.02F
WESTHAMPTON    MOSUNNY   77  58  51 SW8       30.03F
MONTAUK POINT    N/A     78  56  46 W8        30.02F
$$

NYZ052-065-067-272100-
HUDSON VALLEY

CITY           SKY/WX    TMP DP  RH WIND       PRES   REMARKS
WHITE PLAINS   MOSUNNY   76  52  43 W12G18    30.04F
NEWBURGH       PTSUNNY   73  57  56 W15       30.06F
MONTGOMERY     SUNNY     76  56  49 NW13      30.06S
POUGHKEEPSIE   PTSUNNY   76  54  46 VRB6      30.03F
ALBANY         PTSUNNY   73  57  57 NW14      30.04F
$$

NJZ001-105-106-008-010-013-015-019>022-104-272100-
NEW JERSEY

CITY           SKY/WX    TMP DP  RH WIND       PRES   REMARKS
NEWARK/LIBERTY PTSUNNY   81  52  36 NW12G18   30.04F
TETERBORO      PTSUNNY   79  52  38 NW13      30.02F
CALDWELL       CLOUDY    76  52  43 NW6       30.05F
MORRISTOWN     PTSUNNY   77  55  47 NW6G15    30.06F
SOMERVILLE     CLOUDY    77  52  41 VRB5      30.04F
SUSSEX         CLOUDY    73  54  51 NW6       30.07F
ANDOVER          N/A     72  55  55 CALM      30.08F
TRENTON        CLOUDY    79  53  40 MISG      30.05F
MILLVILLE      PTSUNNY   81  53  37 NW8       30.06F
ATLANTIC CITY  PTSUNNY   81  54  39 NW8       30.05F
WRIGHTSTOWN    PTSUNNY   77  56  48 NW10      30.03F
TOMS RIVER     CLOUDY    81  50  34 NW12      30.05F
BELMAR         PTSUNNY   81  54  39 NW9       30.04F
$$

PAZ047>061-062-071-272100-
EASTERN PENNSYLVANIA

CITY           SKY/WX    TMP DP  RH WIND       PRES   REMARKS
PHILADELPHIA   PTSUNNY   80  51  36 NW13G22   30.06F
ALLENTOWN      CLOUDY    75  56  51 NW10      30.08F
SCRANTON       CLOUDY    70  52  52 NW5       30.11F
$$

CTZ002-004>006-009-010-012-RIZ004-006-007-MAZ004-011-015-272100-
SOUTHERN NEW ENGLAND
 IN CT

CITY           SKY/WX    TMP DP  RH WIND       PRES   REMARKS
BRADLEY INTL   MOSUNNY   77  55  46 W12       30.01F
HARTFORD       CLOUDY    77  54  44 NW8G15    30.02S
DANBURY        CLOUDY    74  53  48 VRB5      30.06S
WTRBRY/OXFORD  PTSUNNY   72  54  53 NW6       30.07S
BRIDGEPORT     PTSUNNY   82  55  39 W10G18    30.02F
MERIDEN        CLOUDY    78  53  41 VRB6      30.02F
NEW HAVEN      PTSUNNY   79  59  50 SW6       30.02F
CHESTER        NOT AVBL
GROTON         PTSUNNY   76  62  62 SW12      30.00F
WILLIMANTIC    PTSUNNY   78  55  44 VRB6      30.02S

 IN RI

CITY           SKY/WX    TMP DP  RH WIND       PRES   REMARKS
PROVIDENCE     PTSUNNY   80  54  40 W15G22    29.99S
BLOCK ISLAND   MOSUNNY   75  61  60 W9        30.01F
WESTERLY       PTSUNNY   76  60  57 SW12G18   30.01F

 IN MA

CITY           SKY/WX    TMP DP  RH WIND       PRES   REMARKS
BOSTON         NOT AVBL
WORCESTER      MOSUNNY   71  53  52 W13       30.02F
WESTFIELD      MOSUNNY   77  55  46 W7        30.01F
PROVINCETOWN   SUNNY     77  54  44 SW7       29.97F
NANTUCKET      MOSUNNY   76  60  57 SW15      29.99F
$$

ANZ330-335-338-340-345-350-353-355-272100-
COASTAL MARINE OBSERVATIONS


STATION/POSITION TIME  SKY/WX   TEMP    WIND        PRES    VSBY  WAVE
                                AIR SEA DIR/SP/G                  HT/PER
                 (UTC)          (F)     (DEG/KT/KT) (MB)    (MI)  (FT/S)
NY HARB ENTRANCE 1850            75 77  290/  8/ 10 1017.3          2/ 9
4S FIRE IS       NOT AVBL
20S FIRE ISLAND  1850            72 75  270/  8/ 10 1017.3          2/10
GREAT SOUTH BAY  1930            76 76  210/ 10/ 16   N/A
23SW MTP         1950            72 72  240/ 10/ 12 1016.3          2/10
HUDSON CANYON    NOT AVBL
KINGS POINT      1900            77     360/  5/ 10   N/A
EXECUTION ROCKS  1900            77     290/ 10/ 12   N/A
CENTRAL LI SOUND NOT AVBL
EASTERN LI SOUND 1900            73 71  260/ 14/ 17   N/A
ROBBINS REEF     1900            76     300/ 11/ 15   N/A
$$


>>>>>>>>>>>>>>>>>>>>>>>>>>>> KEY <<<<<<<<<<<<<<<<<<<<<<<<<<<
>                                                          <
>     SKY/WX - SKY CONDITION/PRESENT WEATHER               <
>     TMP    - TEMPERATURE IN FAHRENHEIT                   <
>     DP     - DEWPOINT IN FAHRENHEIT                      <
>     RH     - RELATIVE HUMIDITY IN PERCENT                <
>     WIND   - DIRECTION AND SPEED IN MPH                  <
>     PRES   - MEAN SEA LEVEL PRESSURE IN INCHES OF HG     <
>     WCI    - WIND CHILL INDEX                            <
>     VSB    - VISIBILITY IN MILES                         <
>     HX     - HEAT INDEX                                  <
>     TC     - TEMPERATURE IN CELSIUS                      <
>     VRB    - VARIABLE WIND DIRECTION                     <
>                                                          <
>>>>>>>>>>>>>>>>>>>>>>>>>>>> KEY <<<<<<<<<<<<<<<<<<<<<<<<<<<




USA.gov is the U.S. government's official web portal to all federal, state and local government web resources and services.